Weather in Voznesenka

Russia / Tomsk District     56°43′10″N   83°53′47″E
temp.,
°C
wind,
m/s
gust,
m/s
humid.,
%
clouds,
%
prec.,
mm/h
press.,
hPa
HPBL,
m
17 may, tue
tue1701:00+15sw2676100 0.4 1009137
04:00+15s2873100 0.2 1008217
07:00+16ssw4107592 0.2 1008410
10:00+22s594916 0.0 1006857
13:00+27ssw7123035 0.0 10043121
16:00+28ssw6132794 0.1 10023215
19:00+28sw6132725 0.1 10003431
22:00+23wnw49395 0.1 1002361
18 may, wed
wed1801:00+16s22632 0.1 100323
04:00+14wsw227074 0.0 100533
07:00+16sw39573 0.0 1007441
10:00+21w58355 0.0 10081616
13:00+23w69275 0.0 10092465
16:00+24w5725100 0.0 10092617
19:00+23w352773 0.0 10102405
22:00+17nnw004292 0.0 101011
19 may, thu
thu1901:00+15ese2247100 0.0 101023
04:00+16ese374692 0.0 1008185
07:00+15se3105496 0.0 1006259
10:00+20sse51255100 0.6 1004644
13:00+23s4950100 0.9 1002779
16:00+23s51051100 0.0 10001225
19:00+23wsw514360 0.2 10012420
22:00+17sw615355 0.0 10041738
20 may, fri
fri2001:00+15sw713426 0.0 10041574
04:00+13ssw81851100 0.0 10041947
07:00+12sw71572100 0.8 10061304
10:00+16wsw8155098 0.0 10081753
13:00+20wsw812325 0.0 10102583
16:00+22wsw7122797 0.0 10093208
19:00+20w51134100 0.0 10102587
22:00+13w2348100 0.0 101246
21 may, sat
sat2101:00+13s2451100 0.0 101196
04:00+15ssw41246100 0.0 1010550
07:00+15ssw4125082 0.0 1009531
10:00+21ssw6123745 0.0 1008809
13:00+26ssw69295 0.0 10071599
16:00+27ssw582710 0.0 10051838
19:00+26ssw3631100 0.0 10031492
22:00+19se3950100 0.0 1002160